Date String (YYYY-MM-DD hh:mm:ss) UTC,Instrument flags,absolute air pressure of the measurement (hPa),sample flow rate (lpm),inlet stack bypass flow (lpm),air temperature of the measurement (°C),ambient temperature measured by the external sensor (°C),aerosol sample conditioner tube jacket temperature (°C),OPC LED temperature (°C),internal box temperature (°C),relative humidity of the measurement (%),span deviation,mass concentration of particles derived from Lorenz-Mie calculation of OPC scattering (μg/m³),mass concentration of particles derived from Lorenz-Mie calculation of OPC scattering (μg/m³),mass concentration of particles derived from Lorenz-Mie calculation of OPC scattering (μg/m³)
DateTimeUTC,F1_M11,P_M11,Q1_M11,Q2_M11,T1_M11,T2_M11,T3_M11,T4_M11,T5_M11,U1_M11,ZSPAN_M11,X0_M11,X2_M11,X1_M11
2023-12-23 10:00:00,SystemResetWarning,0823.1,5.00,000.00,024.1,023.2,000.0,032.4,025.5,12.5,0000.0,0009.06,0004.08,0003.76
2023-12-23 10:01:00,SystemResetWarning,0823.1,4.99,000.00,024.1,023.2,000.0,032.4,025.5,12.5,0000.0,0009.48,0004.10,0003.77
2023-12-23 10:02:00,SystemResetWarning,0823.0,5.00,000.00,024.1,023.2,000.0,032.4,025.5,12.5,0000.0,0009.97,0004.11,0003.77
2023-12-23 10:03:00,SystemResetWarning,0823.0,5.00,000.00,024.1,023.2,000.0,032.4,025.5,12.5,0000.0,0010.10,0004.13,0003.77
2023-12-23 10:04:00,SystemResetWarning,0823.2,5.01,000.00,024.1,023.2,000.0,032.4,025.5,12.5,0000.0,0009.83,0004.11,0003.77
2023-12-23 10:05:00,SystemResetWarning,0823.0,5.00,000.00,024.1,023.2,000.0,032.4,025.5,12.5,0000.0,0009.76,0004.18,0003.81
2023-12-23 10:06:00,SystemResetWarning,0823.2,5.00,000.00,024.1,023.2,000.0,032.4,025.5,12.5,0000.0,0009.92,0004.24,0003.86
2023-12-23 10:07:00,SystemResetWarning,0822.7,5.01,000.00,024.1,023.2,000.0,032.4,025.5,12.5,0000.0,0010.10,0004.32,0003.94
2023-12-23 10:08:00,SystemResetWarning,0822.8,5.00,000.00,024.1,023.2,000.0,032.4,025.5,12.5,0000.0,0010.85,0004.45,0004.04
2023-12-23 10:09:00,SystemResetWarning,0822.6,4.99,000.00,024.1,023.2,000.0,032.4,025.5,12.5,0000.0,0011.08,0004.58,0004.12
2023-12-23 10:10:00,SystemResetWarning,0822.6,4.99,000.00,024.1,023.2,000.0,032.4,025.5,12.5,0000.0,0011.02,0004.64,0004.15
2023-12-23 10:11:00,SystemResetWarning,0822.6,4.99,000.00,024.1,023.2,000.0,032.4,025.5,12.4,0000.0,0010.24,0004.63,0004.15
2023-12-23 10:12:00,SystemResetWarning,0822.6,5.00,000.00,024.1,023.2,000.0,032.4,025.5,12.4,0000.0,0009.96,0004.62,0004.15
2023-12-23 10:13:00,SystemResetWarning,0823.1,5.00,000.00,024.1,023.2,000.0,032.4,025.5,12.4,0000.0,0009.33,0004.64,0004.16
2023-12-23 10:14:00,SystemResetWarning,0822.8,5.01,000.00,024.1,023.1,000.0,032.4,025.5,12.4,0000.0,0009.15,0004.65,0004.16
2023-12-23 10:15:00,SystemResetWarning,0822.5,5.00,000.00,024.1,023.1,000.0,032.4,025.5,12.4,0000.0,0009.06,0004.66,0004.16
2023-12-23 10:16:00,SystemResetWarning,0822.5,5.00,000.00,024.1,023.1,000.0,032.4,025.5,12.4,0000.0,0009.25,0004.65,0004.16
2023-12-23 10:17:00,SystemResetWarning,0822.4,5.00,000.00,024.1,023.1,000.0,032.4,025.5,12.4,0000.0,0009.81,0004.65,0004.16
2023-12-23 10:18:00,SystemResetWarning,0822.4,4.99,000.00,024.1,023.1,000.0,032.4,025.5,12.4,0000.0,0009.87,0004.65,0004.15
2023-12-23 10:19:00,SystemResetWarning,0822.3,5.00,000.00,024.1,023.1,000.0,032.4,025.5,12.4,0000.0,0009.87,0004.62,0004.15
2023-12-23 10:20:00,SystemResetWarning,0822.2,5.00,000.00,024.1,023.1,000.0,032.4,025.5,12.4,0000.0,0010.17,0004.57,0004.15
2023-12-23 10:21:00,SystemResetWarning,0822.2,5.00,000.00,024.1,023.1,000.0,032.4,025.5,12.4,0000.0,0010.04,0004.53,0004.13
2023-12-23 10:22:00,SystemResetWarning,0822.1,5.00,000.00,024.1,023.1,000.0,032.4,025.5,12.4,0000.0,0010.11,0004.54,0004.14
2023-12-23 10:23:00,SystemResetWarning,0822.1,5.00,000.00,024.1,023.2,000.0,032.4,025.5,12.4,0000.0,0010.34,0004.55,0004.16
2023-12-23 10:24:00,SystemResetWarning,0822.1,5.01,000.00,024.1,023.2,000.0,032.4,025.5,12.4,0000.0,0010.33,0004.56,0004.18
2023-12-23 10:25:00,SystemResetWarning,0822.1,5.00,000.00,024.1,023.2,000.0,032.4,025.5,12.4,0000.0,0010.32,0004.58,0004.22
2023-12-23 10:26:00,SystemResetWarning,0822.0,4.99,000.00,024.1,023.2,000.0,032.4,025.5,12.4,0000.0,0010.36,0004.60,0004.26
2023-12-23 10:27:00,SystemResetWarning,0822.0,4.99,000.00,024.1,023.2,000.0,032.4,025.5,12.4,0000.0,0010.05,0004.61,0004.29
2023-12-23 10:28:00,SystemResetWarning,0822.0,4.99,000.00,024.1,023.2,000.0,032.4,025.5,12.4,0000.0,0009.42,0004.63,0004.32
2023-12-23 10:29:00,SystemResetWarning,0821.9,5.00,000.00,024.1,023.2,000.0,032.4,025.5,12.4,0000.0,0009.32,0004.66,0004.34
2023-12-23 10:30:00,SystemResetWarning,0822.0,5.01,000.00,024.1,023.2,000.0,032.4,025.5,12.4,0000.0,0008.60,0004.69,0004.37
2023-12-23 10:31:00,SystemResetWarning,0821.9,5.01,000.00,024.1,023.2,000.0,032.4,025.5,12.4,0000.0,0008.09,0004.73,0004.40
2023-12-23 10:32:00,SystemResetWarning,0821.9,5.00,000.00,024.1,023.2,000.0,032.4,025.5,12.4,0000.0,0008.26,0004.77,0004.42
2023-12-23 10:33:00,SystemResetWarning,0821.9,4.99,000.00,024.1,023.2,000.0,032.4,025.5,12.4,0000.0,0008.41,0004.84,0004.45
2023-12-23 10:34:00,SystemResetWarning,0821.9,4.99,000.00,024.1,023.2,000.0,032.4,025.5,12.4,0000.0,0008.12,0004.84,0004.47
2023-12-23 10:35:00,SystemResetWarning,0821.9,5.00,000.00,024.1,023.2,000.0,032.4,025.5,12.4,0000.0,0008.18,0004.88,0004.49
2023-12-23 10:36:00,SystemResetWarning,0821.9,5.01,000.00,024.1,023.2,000.0,032.4,025.5,12.4,0000.0,0009.36,0004.89,0004.49
2023-12-23 10:37:00,SystemResetWarning,0822.0,5.00,000.00,024.1,023.2,000.0,032.4,025.5,12.4,0000.0,0009.87,0004.86,0004.49
2023-12-23 10:38:00,SystemResetWarning,0822.1,5.00,000.00,024.1,023.2,000.0,032.4,025.5,12.4,0000.0,0009.94,0004.86,0004.48
2023-12-23 10:39:00,SystemResetWarning,0822.1,5.00,000.00,024.1,023.2,000.0,032.4,025.5,12.4,0000.0,0010.17,0004.85,0004.46
2023-12-23 10:40:00,SystemResetWarning,0822.1,5.00,000.00,024.1,023.1,000.0,032.4,025.4,12.4,0000.0,0010.15,0004.84,0004.45
2023-12-23 10:41:00,SystemResetWarning,0822.1,5.00,000.00,024.1,023.1,000.0,032.4,025.4,12.4,0000.0,0010.19,0004.85,0004.45
2023-12-23 10:42:00,SystemResetWarning,0822.1,5.01,000.00,024.1,023.1,000.0,032.4,025.5,12.3,0000.0,0010.16,0004.82,0004.42
2023-12-23 10:43:00,SystemResetWarning,0822.1,5.01,000.00,024.1,023.0,000.0,032.4,025.5,12.4,0000.0,0010.50,0004.80,0004.40
2023-12-23 10:44:00,SystemResetWarning,0822.2,5.00,000.00,024.1,023.0,000.0,032.4,025.4,12.4,0000.0,0010.81,0004.75,0004.39
2023-12-23 10:45:00,SystemResetWarning,0822.1,5.00,000.00,024.1,023.0,000.0,032.4,025.4,12.5,0000.0,0011.23,0004.80,0004.37
2023-12-23 10:46:00,SystemResetWarning,0822.1,5.00,000.00,024.0,023.0,000.0,032.4,025.4,12.6,0000.0,0011.53,0004.76,0004.34
2023-12-23 10:47:00,SystemResetWarning,0822.1,5.00,000.00,024.0,023.0,000.0,032.4,025.4,13.0,0000.0,0011.06,0004.72,0004.30
2023-12-23 10:48:00,SystemResetWarning,0822.1,5.00,000.00,024.0,023.0,000.0,032.4,025.4,12.9,0000.0,0010.73,0004.70,0004.27
2023-12-23 10:49:00,SystemResetWarning,0822.0,5.01,000.00,024.0,023.0,000.0,032.4,025.4,12.6,0000.0,0011.37,0004.71,0004.26
2023-12-23 10:50:00,SystemResetWarning,0822.1,5.00,000.00,024.0,023.0,000.0,032.4,025.4,12.6,0000.0,0011.10,0004.70,0004.27
2023-12-23 10:51:00,SystemResetWarning,0822.0,5.01,000.00,024.0,023.0,000.0,032.4,025.4,12.7,0000.0,0011.07,0004.68,0004.26
2023-12-23 10:52:00,SystemResetWarning,0822.0,5.00,000.00,024.0,023.0,000.0,032.4,025.4,12.6,0000.0,0011.78,0004.68,0004.24
2023-12-23 10:53:00,SystemResetWarning,0821.9,5.00,000.00,024.0,023.0,000.0,032.4,025.4,12.6,0000.0,0011.99,0004.68,0004.22
2023-12-23 10:54:00,SystemResetWarning,0821.9,5.00,000.00,024.0,023.0,000.0,032.4,025.4,12.6,0000.0,0011.42,0004.60,0004.16
2023-12-23 10:55:00,SystemResetWarning,0821.9,5.00,000.00,024.0,023.0,000.0,032.4,025.4,12.6,0000.0,0011.01,0004.58,0004.11
2023-12-23 10:56:00,SystemResetWarning,0821.9,5.00,000.00,024.0,023.0,000.0,032.4,025.4,12.5,0000.0,0010.57,0004.49,0004.10
2023-12-23 10:57:00,SystemResetWarning,0821.8,5.00,000.00,024.0,023.0,000.0,032.3,025.4,12.5,0000.0,0010.16,0004.49,0004.11
2023-12-23 10:58:00,SystemResetWarning,0821.8,5.00,000.00,024.0,023.0,000.0,032.3,025.4,12.5,0000.0,0009.78,0004.48,0004.11
2023-12-23 10:59:00,SystemResetWarning,0821.8,5.00,000.00,024.0,023.0,000.0,032.3,025.4,12.4,0000.0,0009.44,0004.48,0004.10
